Flag for U.S.A. Weather past 2 weeks in Urbana, Illinois, U.S.A.

Now
54 °F

Sunny.


Feels Like: 50 °F
Forecast: 36 / 62 °F
Wind: 13 mph from South

Location: University Of Illinois-Willard Airport

Current Time: Oct 23, 2014 at 11:42:15 AM

Latest Report: Oct 23, 2014 at 10:53 AM


Visibility: 10 mi

Pressure: 30.23 "Hg

Humidity: 69%

Dew point: 44 °F

Location of UrbanaLocation

Historic Weather in Urbana — Graph

°F

Urbana temperature yesterday

Maximum temperature yesterday: 60 °F (at 3:53 PM)
Minimum temperature yesterday: 36 °F (at 6:53 AM)
Average temperature yesterday: 47 °F

Past Weeks' High & Low Weather Summary

 TemperatureHumidityPressure
High72 °F (Oct 13, 3:53 PM)100% (Oct 12, 9:53 PM)30.36 "Hg (Oct 12, 9:53 PM)
Low34 °F (Oct 19, 6:53 AM)31% (Oct 8, 2:53 PM)29.46 "Hg (Oct 14, 10:53 AM)
Average53 °F79%29.97 "Hg
* Reported Oct 8 10:53 AM — Oct 23 10:53 AM, Urbana, Weather by CustomWeather, © 2014

Note: Actual official high and low records may vary slightly from our data, if they occured in-between our weather recording intervals... More about our weather records

Advertising

Urbana weather history for previous 24 hours

 ConditionsComfort  
Time TempWeatherWind HumidityBarometerVisibility
10:53 AM
Oct 23
54 °FSunny.13 mph69%30.23 "Hg10 mi
9:53 AM51 °FSunny.9 mph77%30.24 "Hg10 mi
8:53 AM45 °FSunny.8 mph86%30.25 "Hg7 mi
7:53 AM37 °FFog.6 mph96%30.25 "Hg4 mi
6:53 AM34 °FFog.5 mph97%30.24 "Hg4 mi
5:53 AM34 °FFog.6 mph97%30.24 "Hg6 mi
4:53 AM35 °FClear.7 mph92%30.24 "Hg7 mi
3:53 AM37 °FClear.6 mph89%30.24 "Hg10 mi
2:53 AM35 °FClear.5 mph92%30.24 "Hg10 mi
1:53 AM37 °FClear.7 mph89%30.24 "Hg10 mi
12:53 AM39 °FClear.7 mph86%30.26 "Hg10 mi
11:53 PM
Oct 22
41 °FClear.7 mph80%30.27 "Hg10 mi
10:53 PM43 °FClear.N/A76%30.27 "Hg10 mi
9:53 PM42 °FClear.8 mph76%30.27 "Hg10 mi
8:53 PM43 °FClear.5 mph76%30.26 "Hg10 mi
7:53 PM43 °FClear.N/A76%30.27 "Hg10 mi
6:53 PM46 °FSunny.N/A71%30.26 "Hg10 mi
5:53 PM54 °FSunny.5 mph53%30.26 "Hg10 mi
4:53 PM59 °FSunny.3 mph42%30.27 "Hg10 mi
3:53 PM60 °FSunny.No wind42%30.28 "Hg10 mi
2:53 PM59 °FSunny.N/A44%30.29 "Hg10 mi
1:53 PM58 °FSunny.3 mph47%30.31 "Hg10 mi
12:53 PM56 °FSunny.9 mph49%30.33 "Hg10 mi
11:53 AM54 °FSunny.5 mph53%30.36 "Hg10 mi
Weather by CustomWeather, © 2014

See weather overviewHow to use our weather pages